Location: Frizzleburg
(41.0764°N, 80.4548°W)
Time: 08:55:14
(UTC+00:00)

STARLINK-48 - Pass Details

Date: 17 November 2019
Orbit: 506 x 508 km, 53.0° (Epoch: 13 December)

Event Time Altitude Azimuth Distance (km) Brightness Sun altitude
Exits shadow 10:44:57 30° 312° (NW) 924 4.3 -16.3°
Maximum altitude 10:45:35 32° 332° (NNW) 885 4.3 -16.2°
Drops below altitude 10° 10:49:08 10° 37° (NE) 1,724 6.5 -15.6°
Sets 10:51:30 0° 48° (NE) 2,611 7.6 -15.1°
